Tracking 19477 objects as of 16-Jan-2019
HD Live streaming from Space Station
objects crossing your sky now

SSC

Track SSC now!
10-day predictions
SSC is classified as:


NORAD ID: 13874
Int'l Code: 1983-008H
Perigee: 380.6 km
Apogee: 1,740.0 km
Inclination: 63.3 °
Period: 106.3 minutes
Semi major axis: 7431 km
RCS: Unknown
Launch date: February 9, 1983
Source: United States (US)
Launch site: AIR FORCE WESTERN TEST RANGE (AFWTR)
aabbcc
Your satellite tracking list
Your tracking list is empty




NASA's NSSDC Master Catalog

Two Line Element Set (TLE):
1 13874U 83008H   19003.18299315 0.00001050  00000-0  73572-4 0    00
2 13874  63.2910 160.6314 0914651  84.1679 275.8321 13.55206081    07
Source of the keplerian elements: McCants